Theta_e
314 314 314 318 319 322 323 323 329 330 329 323 319 322 319 319 321 320 320 319 320 319 319 319 319 320 319 319 320 320 321 321 322 326 325 322 325 325 328 330 329 332 333 334 334 333 334 335 337 339 339 339 339 338 336 335 334 333 332 331 329 325 321 321 324 326 323 320 321 323 325 327 330 331 331 331 330 331 331 331 334 335 334 332 331 329 326 324 321 319 317 316 315 315 313 310 314
314 315 316 320 322 325 325 324 330 329 325 320 317 320 317 319 320 319 320 320 320 319 319 319 319 320 319 320 321 323 324 324 323 324 325 324 324 323 326 330 332 334 334 334 334 333 333 335 336 337 339 339 339 338 337 336 335 335 333 331 330 326 321 320 321 321 319 318 319 321 324 326 328 331 331 331 330 330 330 331 333 334 334 332 329 325 320 315 312 311 309 310 309 310 311 310 310
315 317 319 323 324 323 326 327 328 326 322 317 314 318 318 319 320 318 320 318 319 319 319 319 318 320 319 320 320 322 324 324 323 323 325 325 323 320 325 333 335 334 334 335 335 333 333 335 335 336 339 338 338 337 336 336 335 335 334 331 330 328 323 320 320 319 319 318 320 322 325 326 328 330 330 330 330 331 329 330 332 332 332 330 325 320 315 311 309 308 308 308 308 309 310 310 310
317 320 323 324 326 325 328 328 330 330 321 318 317 316 318 319 320 319 319 318 319 319 319 319 318 319 319 320 319 320 322 323 324 323 321 321 320 319 326 333 335 334 334 336 335 334 333 334 334 335 338 338 338 337 336 335 334 333 332 331 330 328 326 324 323 322 320 319 322 325 326 327 328 329 329 329 330 330 328 328 330 329 327 324 320 316 313 311 309 308 308 308 308 309 309 310 309
318 321 323 322 327 326 328 328 331 331 320 323 320 314 319 319 319 318 317 318 318 319 318 318 318 317 319 319 318 320 320 321 322 320 318 318 318 320 325 331 334 335 334 335 335 334 333 333 334 334 336 338 337 337 336 334 333 332 330 330 330 329 329 326 325 324 321 322 325 328 328 328 329 329 329 329 328 327 326 326 327 325 322 319 318 316 315 314 311 308 307 307 307 308 309 309 309
318 321 321 320 325 323 329 328 322 323 318 324 320 314 319 317 318 317 316 317 316 318 318 318 318 317 320 320 319 319 320 320 319 318 317 318 318 319 322 325 333 338 336 336 336 334 333 333 334 334 335 338 338 337 337 335 333 332 331 330 329 330 329 326 323 322 322 325 328 328 328 328 329 330 329 328 326 325 325 325 325 322 319 319 321 319 317 317 314 309 306 306 306 308 308 309 309
321 322 321 323 326 323 332 328 318 321 318 319 318 317 318 315 317 316 316 316 316 317 317 318 317 318 320 321 321 320 318 318 319 318 317 317 317 319 321 324 333 340 338 338 338 335 333 332 333 332 334 337 338 338 337 335 334 333 333 331 330 330 330 327 321 320 323 326 330 330 329 328 329 330 329 327 325 325 324 325 323 321 322 324 325 322 321 321 318 312 307 305 305 306 307 307 307
321 322 321 326 331 329 331 325 320 324 320 316 317 318 317 316 316 316 316 317 317 316 316 317 317 319 319 319 323 321 316 315 317 317 317 316 317 318 321 325 332 337 338 339 339 336 333 332 332 331 332 336 338 338 337 336 335 334 333 332 332 330 330 328 322 320 322 325 329 331 331 330 330 331 330 329 327 327 325 325 324 325 328 329 327 326 325 323 322 317 309 305 304 305 305 306 305
320 322 322 326 329 328 327 321 320 321 319 318 317 318 318 318 317 315 316 316 317 316 317 317 317 321 318 317 320 319 316 314 316 317 317 316 317 319 320 323 326 330 335 340 339 336 333 331 332 330 332 336 337 337 338 337 336 335 334 333 333 332 331 330 325 321 321 325 330 332 332 332 332 331 331 331 329 329 328 327 328 329 330 330 328 325 323 322 321 320 314 306 304 304 304 304 304
320 321 320 327 329 323 322 320 320 319 318 318 316 318 318 318 318 316 316 316 317 316 317 317 317 319 317 316 316 317 316 314 314 316 316 316 317 318 319 321 322 324 330 336 337 335 331 329 330 331 333 336 337 337 338 337 337 336 334 334 333 332 331 331 329 325 321 326 331 332 333 332 332 332 332 332 331 331 330 329 329 330 331 328 325 322 319 319 318 319 317 309 304 304 303 304 305
322 320 318 328 329 321 322 322 320 320 318 318 317 317 317 318 317 317 317 317 317 317 317 317 317 317 316 315 315 314 313 313 314 314 315 316 316 317 318 320 321 321 324 327 329 330 327 326 328 331 334 335 336 336 337 337 337 336 335 334 333 333 332 331 331 329 324 326 331 332 333 333 332 332 332 332 330 330 330 329 330 330 328 325 323 320 318 317 316 317 318 313 305 303 303 304 305
322 323 325 324 323 321 323 324 320 319 319 319 318 317 317 317 318 316 317 316 316 317 316 316 316 316 316 314 314 313 312 313 314 314 314 315 315 316 316 318 320 320 320 320 321 323 322 322 325 330 333 334 335 335 336 337 336 336 335 334 334 333 332 331 330 330 326 326 331 332 332 333 333 332 332 332 330 330 330 329 329 328 325 324 322 320 318 316 315 316 318 315 307 303 303 303 305
320 323 329 323 323 325 324 323 321 321 319 318 318 317 318 316 317 316 316 316 316 317 316 316 316 317 316 315 314 313 313 313 313 314 313 314 314 315 315 316 319 319 319 318 318 318 319 319 323 328 330 332 333 334 335 335 336 336 336 335 334 333 332 331 330 331 327 325 330 331 331 332 333 333 332 332 330 329 329 328 328 326 325 325 325 322 320 317 316 316 317 317 310 305 303 303 304
318 319 327 325 325 325 325 323 321 324 319 317 317 316 318 316 316 317 317 317 316 317 316 316 316 316 316 315 315 314 314 313 313 314 313 314 313 314 315 315 316 318 319 318 318 317 317 317 321 327 330 332 333 334 335 335 336 336 336 336 335 334 332 331 329 330 328 326 329 331 331 332 333 333 332 331 331 330 330 329 329 328 327 328 327 323 322 320 319 317 317 317 313 308 305 303 303
316 318 325 325 323 320 323 324 324 326 320 317 318 316 317 316 317 317 317 318 316 316 316 316 315 316 316 316 316 314 314 313 313 313 314 314 313 314 314 315 315 315 318 318 319 318 318 317 319 326 330 332 333 334 334 333 335 336 336 336 336 335 333 332 329 329 329 327 327 330 331 332 332 332 332 331 331 331 331 331 331 330 329 330 328 324 324 323 321 319 318 318 314 310 308 304 303
314 319 326 324 320 318 319 320 324 325 318 317 317 316 317 316 317 317 316 317 316 316 316 316 315 316 316 315 316 314 313 313 313 314 316 317 315 315 314 314 315 314 316 316 318 319 319 318 318 323 329 331 331 332 333 333 334 335 336 336 336 336 335 334 330 328 328 327 326 328 330 331 331 331 331 331 332 332 332 332 331 331 330 331 329 325 325 323 322 320 318 317 316 312 310 307 305
316 323 328 324 321 318 318 319 322 322 318 317 316 317 317 316 317 316 316 316 316 316 316 316 315 315 315 314 314 314 313 313 314 315 318 319 318 316 315 314 314 315 315 314 315 317 318 317 317 320 324 328 330 330 330 332 332 333 334 335 335 336 336 335 332 329 327 327 326 326 328 329 329 330 331 331 331 331 332 332 331 330 331 330 328 326 325 324 323 323 318 316 316 313 311 309 307
321 329 326 320 321 317 317 320 319 320 319 317 316 317 317 317 317 316 316 316 315 315 315 315 314 314 314 314 313 313 313 313 314 315 317 319 319 318 317 315 314 314 314 315 314 315 316 316 317 317 319 321 327 331 330 329 331 331 331 332 333 334 335 335 334 332 328 326 326 325 326 326 327 327 328 329 329 330 330 330 329 329 330 329 327 326 326 324 323 324 321 318 317 314 312 311 309
319 329 326 318 320 316 315 318 316 317 318 316 317 317 316 317 317 317 316 315 315 315 314 314 314 314 313 313 313 313 313 312 313 315 317 318 318 318 317 316 314 314 314 314 315 315 315 315 316 316 317 317 322 330 331 330 330 331 331 332 331 331 334 334 335 334 331 328 326 326 326 325 326 326 327 328 329 330 330 329 328 328 329 328 326 326 326 323 322 323 323 322 320 316 314 312 311
316 324 326 319 317 315 315 317 316 317 317 315 317 316 316 316 316 317 316 314 314 315 315 314 314 314 314 313 313 313 313 312 312 314 316 317 318 317 316 315 314 314 313 314 314 315 315 315 315 315 317 317 319 325 330 331 331 332 333 333 332 331 332 332 333 334 333 330 327 327 327 327 327 328 330 330 330 330 330 329 328 328 328 327 326 327 326 323 322 323 323 323 322 318 316 315 313
316 321 324 317 314 315 316 317 316 317 316 316 316 316 316 316 316 316 315 316 316 314 314 315 315 315 314 314 313 313 312 313 312 312 314 315 315 315 314 314 313 313 313 313 313 314 314 315 315 315 316 317 319 321 327 331 332 332 334 334 333 331 331 331 332 333 333 332 330 329 329 329 328 329 332 332 331 330 330 329 328 328 328 327 327 328 326 324 324 324 324 323 323 320 318 316 315
316 318 318 316 315 315 316 317 316 315 316 316 315 315 316 316 316 316 315 317 318 314 314 315 315 315 315 314 314 313 312 313 313 312 313 313 313 313 313 313 313 313 313 314 313 313 314 313 313 314 315 316 319 321 327 331 332 332 333 333 332 331 331 332 332 332 333 333 332 331 330 330 329 330 332 332 332 331 330 329 329 329 328 328 328 327 326 325 325 325 325 323 323 321 320 318 317
318 317 315 316 316 316 317 316 316 315 315 315 315 316 316 316 316 316 315 316 317 315 314 314 313 313 314 313 313 312 313 313 313 313 312 313 313 313 313 313 314 313 314 314 314 314 313 314 313 313 313 315 318 322 327 330 330 331 332 332 331 331 332 333 334 333 333 334 333 332 332 331 331 331 331 332 333 332 331 330 330 329 328 328 328 327 326 325 325 326 325 324 323 322 321 320 319
319 318 316 317 317 317 317 317 317 315 315 315 315 316 315 316 316 316 315 315 316 315 314 313 312 312 312 312 312 312 312 313 313 313 312 313 313 313 313 313 313 313 314 314 314 314 314 314 314 314 313 313 319 324 327 328 329 329 331 331 330 332 333 333 334 334 333 334 334 333 332 333 332 332 331 331 332 332 331 331 331 329 329 329 328 327 327 327 326 326 325 324 324 323 322 321 320
319 319 317 317 317 316 317 317 317 316 315 315 315 316 315 316 315 315 315 315 315 314 313 312 311 312 311 311 311 312 312 313 313 313 313 313 313 313 314 313 314 314 314 314 314 314 314 314 314 314 313 313 321 326 327 329 329 329 330 330 330 332 333 332 332 333 333 334 334 333 333 333 333 332 332 332 332 332 332 331 331 330 329 330 329 328 328 327 326 326 325 324 324 323 322 321 320
317 317 316 316 317 316 316 316 316 316 315 315 316 315 315 316 315 315 314 314 314 313 312 311 311 311 311 311 311 312 312 313 313 313 314 314 314 314 313 313 314 314 314 313 314 314 313 314 314 314 313 314 322 327 328 330 330 328 330 330 331 332 332 333 333 332 332 333 333 333 333 332 332 332 332 331 331 332 332 332 331 331 330 329 329 328 328 327 326 326 326 325 323 323 321 320 321
316 316 316 316 317 317 316 316 316 316 316 316 316 316 316 315 315 315 314 313 313 313 312 311 311 311 311 312 312 312 312 313 313 313 314 313 314 313 313 313 313 313 313 313 313 313 313 314 314 313 314 316 322 327 329 331 331 329 330 331 332 332 332 333 333 332 332 332 332 332 332 331 331 332 331 331 331 331 331 331 331 330 330 329 328 328 328 327 326 326 326 325 323 322 321 321 321
316 316 317 317 317 317 316 316 316 316 316 316 316 315 315 314 315 316 314 313 313 312 312 311 311 312 312 312 312 312 312 313 313 313 313 313 314 313 314 313 313 313 313 313 313 313 313 314 314 314 316 318 323 327 329 331 331 330 331 331 332 331 331 332 332 332 332 331 331 331 330 330 330 330 330 330 330 331 331 331 330 329 329 329 328 328 328 327 326 326 325 324 322 321 321 321 321
316 316 318 320 318 318 317 315 316 316 316 316 315 316 317 316 314 315 313 313 312 311 311 311 312 312 312 312 312 312 312 313 313 312 313 313 313 313 313 313 313 313 313 313 313 313 314 315 315 316 319 322 324 327 329 331 330 330 332 331 331 330 329 330 329 329 330 330 330 329 329 329 328 328 329 330 331 331 330 330 330 329 329 329 328 327 327 327 325 325 324 323 322 321 321 321 320
318 315 316 321 322 323 319 315 316 316 315 316 315 318 325 322 313 313 313 312 311 311 311 311 312 312 312 312 312 312 312 312 312 312 312 313 312 313 312 312 312 312 312 312 313 314 314 315 315 318 322 323 324 327 328 330 331 331 332 331 330 329 328 329 328 328 328 329 329 328 327 327 327 328 329 330 330 330 330 328 328 329 329 328 328 327 327 326 324 323 322 322 321 321 321 320 320
319 316 319 321 321 328 324 313 316 317 315 315 316 319 325 323 313 311 313 312 312 311 311 311 312 312 311 311 311 312 312 312 312 312 312 312 312 312 312 312 312 311 311 312 313 314 315 315 316 319 323 323 323 327 327 328 330 332 332 331 329 328 328 328 328 328 328 328 328 326 327 328 327 327 327 327 327 328 328 327 328 328 328 327 326 326 325 324 323 322 321 321 321 321 321 320 319
318 318 329 326 319 330 326 313 315 317 314 313 315 319 322 320 313 311 312 312 312 312 311 312 311 311 311 311 311 311 312 311 311 311 312 312 311 311 311 311 311 311 313 314 314 315 316 316 318 320 323 325 324 326 326 326 329 330 330 330 329 328 327 327 327 327 327 327 327 326 326 327 328 327 326 325 324 325 326 326 327 327 326 326 325 324 324 323 322 322 322 321 321 320 320 319 316
324 320 329 329 321 326 323 315 315 315 315 313 315 320 322 319 313 311 312 311 312 312 312 312 311 312 311 311 311 311 311 311 311 311 311 311 311 311 311 311 311 312 314 316 316 316 317 318 320 319 320 323 323 324 326 327 327 327 328 329 328 327 327 327 327 326 326 326 325 325 324 325 325 325 324 323 322 322 324 325 326 325 325 324 324 324 323 322 322 322 321 320 320 319 317 314 310
330 321 322 325 323 322 321 320 316 313 315 314 314 316 319 318 312 311 312 311 312 312 312 312 312 312 311 311 311 311 311 311 311 311 311 311 311 310 311 310 311 314 314 316 318 318 320 321 322 322 321 323 323 324 327 326 324 324 326 327 328 327 327 327 326 325 325 324 323 322 322 322 322 321 321 321 321 321 322 323 325 325 324 324 323 323 322 321 321 320 320 319 317 313 310 307 305
331 326 323 324 323 322 321 322 318 314 316 316 315 315 315 316 313 311 312 311 312 312 312 312 312 312 311 311 310 310 310 310 311 311 310 310 310 310 310 310 312 314 314 317 321 321 321 323 324 324 324 325 324 325 326 325 324 325 325 326 327 327 326 325 324 323 323 322 321 320 320 320 320 320 322 322 322 322 322 323 324 324 323 322 322 321 321 320 320 319 317 314 309 306 304 304 304
329 329 329 327 324 323 322 321 318 315 316 317 316 316 315 315 315 313 311 312 312 312 312 312 312 312 311 311 310 310 310 310 310 310 310 309 310 309 308 312 315 315 316 318 321 322 322 322 324 325 325 324 323 325 326 323 324 326 325 325 325 324 324 323 322 321 321 321 320 320 320 320 320 321 321 321 322 323 323 323 322 322 321 321 320 320 319 317 315 313 309 305 303 302 303 301 302
323 322 324 325 323 323 322 321 317 314 316 319 317 316 316 316 317 313 311 312 311 311 311 311 312 311 311 310 310 310 310 309 309 309 309 310 309 308 308 314 317 315 317 318 318 322 323 322 323 324 324 323 321 323 325 323 324 324 324 324 323 323 322 322 321 320 321 321 320 321 321 321 321 321 321 321 321 321 321 321 320 319 318 317 316 314 311 309 307 304 303 301 301 301 301 299 300
320 320 321 322 323 323 322 319 317 314 316 321 320 317 317 317 317 314 310 311 311 311 311 311 312 311 311 311 309 310 309 309 309 308 310 310 309 309 309 314 317 315 317 317 316 320 322 322 322 322 323 323 321 321 322 322 323 323 322 322 322 321 321 320 320 320 320 319 319 320 320 320 320 320 319 319 319 318 317 316 314 313 311 309 308 306 304 303 302 300 300 300 301 300 300 298 299
320 321 320 322 324 323 322 320 317 315 316 323 324 319 318 319 318 314 310 311 311 312 312 311 312 311 310 310 309 309 309 308 308 308 310 309 309 310 310 312 314 315 317 316 316 319 321 321 320 319 320 321 321 321 321 321 321 321 321 321 320 320 319 319 319 319 318 318 318 317 317 317 316 316 314 313 313 311 310 309 307 305 304 302 302 301 300 300 300 299 299 299 299 299 299 298 297
322 322 320 323 324 321 323 321 317 316 317 320 321 319 318 317 317 317 313 311 312 312 312 312 312 312 311 310 310 309 309 309 308 309 310 309 310 311 312 313 314 317 319 317 318 319 318 318 318 319 319 319 320 320 320 320 320 320 320 319 318 318 318 318 318 317 316 315 315 313 312 311 310 309 307 306 306 304 303 303 301 301 299 298 299 299 299 299 298 298 298 298 298 298 298 297 296
324 325 322 324 324 321 322 321 318 319 320 319 318 320 322 321 318 318 315 311 311 311 311 312 311 312 311 310 310 309 309 309 308 309 309 309 311 311 314 317 315 316 319 319 318 317 317 317 318 319 320 319 319 319 319 319 319 318 318 318 317 317 317 316 316 314 311 311 310 308 306 305 304 304 303 302 301 301 300 299 298 298 298 298 298 298 298 298 297 297 297 296 296 296 296 295 295
323 326 324 321 322 322 322 322 321 323 326 322 318 324 332 330 322 320 317 313 313 312 309 311 311 311 311 310 310 309 309 309 308 309 308 309 312 312 315 318 315 315 319 319 316 315 318 318 316 317 317 317 317 317 317 316 316 317 316 316 316 316 315 312 311 309 307 306 305 304 303 302 301 301 300 299 299 299 298 298 298 298 298 298 298 297 297 297 296 296 296 295 295 295 294 294 294
322 324 325 322 321 321 321 321 322 326 329 322 319 326 331 328 324 324 323 319 317 313 309 309 309 310 310 309 309 309 308 308 307 308 308 309 311 312 315 317 315 315 318 319 315 314 319 317 315 317 316 315 316 315 314 314 314 315 316 316 315 315 312 308 306 305 304 304 303 302 301 299 299 299 299 298 298 298 298 298 297 297 297 297 297 296 296 296 295 295 294 294 294 293 293 293 292
325 324 326 326 321 321 323 322 323 328 328 322 320 324 324 322 323 323 322 321 319 315 311 308 307 308 309 309 309 308 308 308 307 307 308 309 311 311 314 315 314 316 318 318 314 314 317 316 315 317 315 314 315 313 313 313 314 315 314 313 311 310 307 305 304 303 303 302 301 300 299 298 298 298 298 298 298 297 297 297 297 296 296 296 296 295 295 294 294 293 293 293 292 292 292 292 291
324 323 326 328 324 325 327 325 325 325 325 323 321 322 323 325 326 322 319 320 320 317 313 309 307 307 308 308 308 308 308 307 307 307 307 309 310 310 312 313 313 316 317 316 314 314 316 315 314 315 314 313 313 312 312 313 313 312 310 308 307 305 305 304 303 302 301 300 299 299 298 298 298 297 297 297 297 297 296 296 296 296 296 295 295 295 294 293 293 293 292 292 292 292 292 291 291
320 320 325 328 327 328 329 327 326 326 325 324 323 322 324 326 326 323 319 319 321 319 316 310 307 307 308 308 308 307 307 307 306 307 306 308 310 310 311 312 313 316 315 315 315 314 313 313 313 313 313 313 312 311 312 311 309 308 306 305 305 304 303 302 301 300 299 299 299 298 298 298 297 297 297 296 296 296 296 296 295 295 295 295 294 294 293 293 293 292 292 291 291 291 291 290 290
317 323 328 328 328 328 329 327 324 325 324 324 324 323 323 326 328 325 321 320 320 319 319 312 306 307 307 307 308 307 307 306 306 306 306 308 310 310 311 312 314 315 315 316 315 313 312 313 313 313 312 312 311 309 308 307 306 305 304 304 304 303 303 302 301 300 299 298 298 298 297 297 297 296 296 296 296 295 295 295 295 295 294 294 293 293 292 292 291 291 291 290 290 289 289 289 289
319 328 329 326 328 328 328 324 321 324 325 323 323 321 321 324 328 326 320 321 321 319 322 317 307 306 307 307 307 306 306 306 305 305 305 307 310 311 312 312 314 315 316 316 314 312 313 314 313 312 311 310 309 306 306 305 304 304 303 303 302 302 302 301 301 300 299 298 298 298 297 296 296 296 295 295 295 295 295 294 294 294 293 293 292 292 291 291 290 290 289 289 289 289 289 288 288
321 327 325 324 325 326 327 322 321 323 323 320 319 320 320 321 322 321 320 322 321 317 316 315 308 305 306 306 306 306 305 305 305 305 305 306 309 311 311 312 313 315 316 316 313 312 313 313 311 310 309 307 306 305 304 304 303 303 302 301 301 301 300 300 300 299 298 298 298 297 297 296 296 295 295 295 295 294 294 294 293 293 292 292 292 291 291 290 290 290 289 289 289 289 289 288 288
320 322 324 326 324 325 327 324 323 325 323 320 317 318 322 322 322 321 320 317 315 311 311 312 310 308 307 306 306 305 305 305 304 304 305 306 309 311 311 313 313 314 315 315 313 312 312 311 309 308 306 305 304 304 303 303 302 301 301 300 300 300 299 299 298 298 298 297 297 297 296 296 296 295 295 295 294 294 294 293 293 293 292 292 292 291 291 290 290 290 290 290 289 289 289 289 289
318 320 322 324 325 328 330 327 326 327 325 319 316 319 325 326 322 318 313 310 308 309 310 311 310 308 307 305 305 305 305 304 304 304 304 306 309 311 312 313 313 313 314 314 312 312 311 309 307 306 304 304 303 303 303 302 301 301 300 300 299 299 299 298 298 298 297 297 297 296 296 295 295 295 295 295 294 294 294 294 293 293 293 292 292 292 291 291 290 290 290 290 289 289 289 289 288
318 320 322 323 327 329 327 324 323 322 322 319 317 322 325 323 319 312 307 307 307 308 308 308 307 306 305 305 304 304 304 304 304 304 304 306 308 311 312 313 313 313 313 313 312 311 309 307 305 304 303 303 303 302 302 301 300 300 299 299 299 298 298 298 298 297 297 296 296 295 295 295 295 295 295 295 295 294 294 294 293 293 293 292 292 291 291 291 290 290 290 289 289 289 288 288 288
319 319 320 322 326 325 324 323 318 318 323 322 320 322 323 320 319 314 309 310 309 307 306 305 304 304 304 304 304 304 304 304 304 304 305 306 308 311 312 313 313 312 312 312 311 310 307 305 304 303 303 302 302 301 301 300 300 299 299 298 298 298 298 298 297 297 296 296 295 295 295 295 295 295 295 295 295 295 294 294 293 293 292 292 292 291 291 290 290 289 289 289 288 288 288 288 288
320 320 319 319 323 324 325 325 322 321 324 323 320 321 322 321 320 315 310 312 313 309 306 304 303 303 304 303 304 304 304 304 303 304 305 306 308 311 312 313 312 312 312 311 310 308 306 304 303 303 302 302 301 301 300 300 299 299 298 298 297 297 297 297 297 296 296 295 295 295 295 295 295 295 295 295 295 295 294 294 293 293 292 291 291 290 290 289 289 289 288 288 288 287 287 287 287
318 320 317 319 325 324 324 325 324 324 324 324 323 321 320 320 320 319 315 315 315 311 307 306 304 303 303 303 303 303 303 303 303 304 305 306 308 311 312 312 312 312 312 310 308 306 305 304 303 302 302 301 301 300 300 299 299 298 298 297 297 297 297 296 296 296 295 295 295 295 295 295 295 295 295 295 295 294 294 293 293 292 291 291 290 290 289 289 289 288 288 288 287 287 287 287 287
314 316 315 319 323 323 323 323 324 325 324 324 325 322 322 320 319 322 321 316 314 310 308 307 304 303 303 303 303 303 303 303 303 304 305 306 308 310 311 312 312 312 310 309 307 305 304 303 302 302 301 301 301 300 299 299 298 297 297 296 296 296 296 296 295 295 295 295 294 295 295 295 295 295 294 294 294 294 293 292 292 292 291 290 290 289 289 289 288 288 288 287 287 287 287 287 287
315 318 318 318 318 319 322 322 322 325 325 326 325 323 327 325 318 318 320 316 312 310 309 307 304 303 304 304 304 303 303 303 304 305 306 307 308 309 310 310 310 310 308 307 306 305 304 303 302 302 301 301 300 299 299 298 297 297 296 296 296 296 296 295 295 294 294 294 294 294 294 294 294 294 294 294 293 293 292 292 292 291 291 290 289 289 288 288 288 288 288 287 287 287 287 286 286
316 317 318 318 317 319 321 321 322 322 322 326 325 323 327 323 315 316 319 316 311 308 309 307 305 304 304 304 304 304 304 304 305 305 306 307 308 308 309 309 309 308 307 306 305 304 304 303 302 302 301 300 300 299 298 297 297 296 296 296 296 295 295 295 294 294 294 294 294 294 294 294 293 293 293 293 292 292 292 292 291 291 290 289 289 288 288 288 288 288 288 287 287 287 287 286 286
Wind_Speed
1 2 2 3 2 3 3 3 1 2 4 3 1 3 2 3 4 4 4 3 4 3 5 7 9 11 9 13 17 18 14 6 3 5 5 5 5 6 7 5 4 7 7 7 13 17 14 12 11 10 10 8 8 7 7 7 7 7 7 8 8 7 8 10 10 11 11 12 12 11 11 12 11 10 9 9 8 8 8 7 8 9 10 10 10 10 10 11 11 11 10 9 8 8 7 6 3
2 3 2 2 2 3 2 2 2 2 5 3 1 3 2 4 6 5 5 4 3 2 6 10 13 13 12 17 20 19 15 13 14 14 12 9 7 8 9 6 5 7 8 7 12 17 15 13 11 10 10 9 8 6 5 5 5 5 6 7 8 7 8 10 10 11 12 13 12 11 11 11 11 10 8 8 7 6 6 6 6 7 9 10 11 12 12 13 12 12 11 10 9 8 7 6 4
3 3 2 2 1 3 2 2 2 2 4 4 2 2 2 6 6 5 6 6 4 4 4 6 12 13 14 13 12 12 8 11 15 13 12 8 8 10 10 9 7 7 7 8 10 15 14 13 11 10 10 9 8 7 5 4 3 4 4 6 7 7 8 9 10 11 12 13 12 11 11 11 11 10 8 7 6 5 5 4 5 7 8 9 11 12 13 14 14 14 12 11 10 9 7 6 5
4 3 3 1 3 4 3 2 2 5 4 4 2 2 3 7 6 6 7 8 5 6 4 4 7 11 17 10 6 10 7 8 9 8 9 8 10 11 10 10 8 7 8 7 8 12 14 13 12 10 9 9 8 7 6 5 3 4 4 5 6 7 8 9 10 10 12 11 11 10 10 11 10 10 8 6 5 4 4 4 5 7 9 10 11 13 14 15 16 15 14 13 11 9 8 6 5
3 2 2 3 4 2 2 2 1 5 3 4 3 1 5 7 6 6 8 8 7 7 8 6 4 8 15 10 5 5 4 4 5 6 9 9 11 12 11 10 8 7 7 6 7 9 14 14 13 11 9 9 9 8 7 5 4 4 5 6 6 6 7 9 10 11 12 11 9 10 10 10 10 9 7 6 4 3 3 4 6 7 9 10 12 13 15 17 18 16 14 13 12 10 8 6 5
3 2 1 4 3 1 2 3 3 4 1 4 5 4 6 8 9 10 10 9 9 8 10 9 6 10 13 12 13 10 6 4 3 5 9 9 10 11 11 11 11 8 4 6 7 7 11 14 15 12 10 9 9 8 7 6 4 4 4 5 6 6 6 8 10 11 12 11 9 9 10 10 9 8 7 6 4 3 4 5 6 7 10 12 14 15 16 18 18 18 15 13 12 10 8 7 6
3 2 2 4 2 1 3 3 3 3 2 2 7 6 7 10 14 14 9 7 7 8 10 10 10 12 8 6 12 13 10 6 5 7 8 8 9 9 10 13 16 12 5 5 4 4 7 11 15 14 11 10 9 8 7 6 4 4 4 4 5 5 6 7 9 11 10 10 9 9 9 9 8 8 6 5 5 4 5 6 7 8 11 13 14 15 16 17 18 18 16 13 12 10 8 7 6
4 4 3 3 2 3 4 4 2 3 2 2 5 6 8 10 12 11 6 5 4 5 8 8 9 9 3 5 7 8 10 10 8 9 8 8 8 8 8 13 17 15 9 6 5 4 4 7 12 15 12 10 9 8 7 6 5 4 3 3 4 4 5 5 8 10 10 8 7 7 8 8 7 7 6 5 5 5 6 7 8 9 11 13 14 15 16 17 18 18 17 14 12 10 8 7 6
4 3 2 2 2 3 3 3 2 3 2 2 4 6 8 7 7 7 6 7 7 7 7 7 7 7 5 12 11 5 8 10 8 8 9 8 7 7 7 10 14 14 11 9 8 6 5 5 10 14 13 10 9 8 8 6 6 5 4 3 4 4 4 5 7 8 9 7 6 6 6 7 7 6 6 5 4 4 6 6 7 8 10 12 13 15 16 17 17 17 17 14 12 11 8 7 6
3 1 1 2 2 4 3 1 1 3 2 4 6 6 6 6 8 9 9 8 8 7 6 7 11 11 9 12 9 5 7 8 7 7 8 8 7 7 6 7 10 10 12 11 11 9 8 7 9 14 14 11 10 9 8 7 6 5 5 4 4 4 4 5 6 6 7 6 6 6 5 6 6 5 5 5 3 2 3 5 5 7 9 11 12 14 15 15 15 15 15 14 12 10 8 7 5
3 1 1 3 3 2 3 2 3 3 3 4 5 5 5 4 6 9 10 9 8 8 5 6 11 13 11 8 7 7 6 6 6 6 7 7 7 7 6 6 6 7 10 10 10 10 9 9 10 13 14 12 11 10 9 8 6 6 5 5 5 5 5 5 5 5 6 6 7 6 6 6 5 5 5 5 2 0 2 4 5 7 8 10 12 13 14 14 14 13 13 13 11 10 8 7 5
3 2 3 4 1 1 4 4 5 4 3 3 2 3 4 4 5 4 7 9 9 10 8 5 5 9 8 5 9 8 4 4 5 5 5 6 6 6 6 7 6 6 7 8 7 7 7 8 10 13 14 13 13 11 10 9 8 7 6 5 6 5 5 5 5 5 5 7 7 6 6 6 6 5 5 5 2 0 1 4 5 7 8 10 13 14 14 14 13 12 12 12 11 9 8 7 6
3 2 5 2 2 3 4 4 5 4 3 0 3 6 4 4 6 5 9 10 8 8 7 6 4 6 6 5 10 8 4 3 4 4 4 5 4 6 6 7 7 7 8 8 6 6 6 7 10 12 14 13 13 12 11 10 9 8 7 7 6 6 6 6 6 6 6 7 7 7 6 6 6 5 5 5 2 1 1 4 6 7 8 11 14 15 16 16 15 13 12 12 12 10 8 7 6
4 2 4 1 1 3 4 3 3 4 1 3 4 8 5 4 6 9 13 10 6 6 3 3 4 6 6 6 7 9 4 2 3 3 3 4 3 4 5 7 8 8 8 8 7 5 5 6 9 12 12 12 13 13 12 11 10 10 9 8 7 7 7 6 7 7 7 7 7 7 6 6 6 5 4 4 3 2 2 4 6 6 8 10 13 14 14 15 15 14 12 11 12 11 9 7 7
4 2 3 2 3 2 2 2 4 5 2 3 5 8 6 6 6 9 11 7 5 6 4 3 3 4 6 5 6 9 4 1 3 3 3 4 4 5 5 7 8 9 9 9 9 7 6 6 8 12 14 14 14 14 14 13 12 11 10 9 8 7 7 6 7 7 8 8 8 8 7 6 6 5 5 4 3 3 3 3 4 5 6 9 11 12 12 13 14 14 12 11 11 11 10 8 7
5 3 4 3 2 0 1 1 4 5 2 4 7 8 6 5 5 7 7 4 6 6 3 3 1 3 6 7 7 7 2 0 2 4 5 4 5 7 7 8 8 10 10 10 10 9 9 7 7 10 13 15 16 16 15 14 13 12 11 10 9 8 8 7 6 7 8 8 9 9 8 7 6 5 4 4 3 3 4 2 3 4 5 7 9 11 11 11 13 14 13 11 11 11 10 8 7
5 3 5 3 1 1 1 0 3 4 3 4 7 7 4 3 3 5 4 3 8 7 5 5 2 4 6 6 7 5 2 1 2 4 6 5 5 7 9 9 10 10 10 11 11 11 11 10 9 9 10 12 14 15 16 15 14 14 13 12 11 10 9 8 5 5 6 7 8 9 9 8 7 5 5 5 3 3 3 2 3 4 4 6 8 9 9 11 12 13 13 13 12 11 10 9 7
5 2 4 1 0 1 1 1 3 5 5 5 6 4 4 4 3 5 3 4 10 9 8 8 5 5 4 4 4 3 2 2 4 6 8 9 7 7 8 9 9 9 9 10 11 12 12 11 11 11 11 11 11 12 14 15 15 15 14 13 12 11 9 7 5 4 5 6 7 9 9 9 8 7 7 6 4 4 3 3 4 4 5 6 7 8 8 10 11 12 14 14 13 11 10 9 8
4 3 4 1 3 1 1 4 4 4 7 8 6 5 6 6 5 5 1 4 12 9 7 8 7 7 5 3 2 0 1 3 7 10 11 11 11 8 7 6 6 7 8 9 10 11 12 12 13 12 12 12 12 12 12 13 14 14 13 13 13 12 11 8 7 6 5 6 7 9 9 9 9 8 8 7 6 5 5 5 4 4 4 6 7 7 7 9 10 10 12 14 16 13 10 9 8
3 3 4 2 4 3 7 9 9 7 10 10 7 4 5 6 5 5 1 3 8 7 7 7 8 8 7 5 3 1 2 3 7 11 13 12 11 10 8 6 6 7 9 9 8 9 11 12 12 12 12 13 13 13 12 13 14 14 12 12 11 11 11 10 10 9 7 7 8 9 9 9 9 8 7 7 6 6 5 6 5 4 3 5 6 6 6 7 8 9 11 14 16 15 12 10 9
2 3 4 4 2 4 6 8 8 8 9 9 8 4 3 5 5 4 3 3 2 6 10 9 9 9 8 7 5 3 4 4 7 9 12 12 11 9 7 6 6 7 8 8 8 9 10 11 11 11 12 13 13 14 13 13 13 13 12 11 10 10 10 11 12 11 10 10 9 9 10 10 9 8 8 8 7 6 6 6 5 3 3 4 5 6 6 6 7 8 11 14 15 15 13 12 11
3 2 4 2 4 4 3 6 5 4 5 5 5 4 3 5 3 1 4 4 3 8 11 9 9 7 6 7 6 5 6 6 6 7 8 9 8 7 5 5 5 6 6 7 7 8 8 9 10 11 11 12 13 14 14 13 12 13 11 10 10 10 9 11 13 13 11 11 11 10 11 11 10 9 8 8 7 6 6 5 4 3 3 4 5 6 6 5 6 8 11 13 14 14 13 13 12
2 1 4 7 6 5 4 4 3 1 3 3 3 2 3 2 1 3 4 5 6 11 12 8 7 8 9 10 9 8 8 7 6 6 6 6 6 5 5 6 6 6 7 8 8 8 8 9 10 11 11 12 13 14 15 16 14 13 12 11 11 10 10 12 14 14 13 11 12 13 12 11 10 9 8 8 8 6 5 4 3 2 3 3 4 5 6 6 6 7 10 12 12 12 12 12 12
4 1 3 5 5 5 3 2 3 1 1 1 0 1 2 1 1 2 4 6 8 11 9 6 6 8 10 11 11 10 10 9 7 6 6 6 6 6 7 7 8 9 9 10 10 9 9 10 11 11 11 12 14 15 17 17 16 15 15 14 14 13 13 15 14 15 14 12 13 13 12 11 10 9 9 9 9 7 4 4 4 3 1 3 3 3 4 6 6 6 9 10 10 10 10 11 12
4 1 3 3 2 2 3 3 3 4 3 4 4 5 6 5 4 4 6 9 10 11 7 6 7 7 9 10 10 10 9 8 7 6 6 6 6 7 8 8 9 10 10 10 11 10 10 11 11 11 11 13 17 19 19 17 16 17 17 16 16 15 15 14 15 15 14 14 13 11 10 11 10 9 10 9 8 7 6 7 7 4 3 5 5 3 4 5 6 7 7 8 9 8 8 9 9
1 1 3 3 2 2 4 6 5 5 5 6 5 6 8 8 6 5 8 13 11 10 8 7 8 9 10 10 9 8 7 7 6 6 6 6 7 7 8 8 9 10 10 10 11 9 9 10 10 10 11 16 20 21 20 17 17 18 18 17 17 16 14 13 13 13 13 14 13 10 10 10 9 9 9 8 8 7 9 10 9 9 7 6 7 5 6 6 6 6 6 6 6 5 6 6 6
0 1 4 6 7 8 7 8 9 7 7 9 6 5 7 6 4 5 9 15 13 11 10 10 11 11 11 9 8 7 6 6 6 6 6 7 8 8 8 8 9 10 10 10 10 9 8 9 9 9 13 18 22 22 21 19 18 19 19 18 17 17 16 13 12 12 13 13 11 10 9 9 8 9 8 7 8 7 10 12 10 10 8 7 8 7 8 7 5 4 4 2 1 2 4 6 7
0 3 6 8 10 11 10 10 11 9 6 10 9 4 5 3 4 7 13 17 14 13 13 12 13 12 10 8 7 7 7 7 6 7 7 8 8 9 10 10 11 12 12 11 10 7 7 8 8 10 15 18 21 22 20 18 18 20 20 19 18 18 17 16 13 13 13 11 9 9 8 8 8 9 9 9 9 8 9 12 9 8 9 9 9 9 9 8 6 6 5 3 2 1 3 6 8
1 1 3 7 7 7 11 12 15 11 4 9 9 2 5 4 6 6 13 18 14 14 14 14 14 12 11 9 8 8 8 8 8 8 8 8 9 10 10 11 12 12 13 12 9 6 6 8 10 12 14 17 19 19 18 16 16 18 18 18 17 16 16 16 14 11 10 9 8 7 7 7 8 9 10 10 10 8 8 9 8 8 9 10 11 10 11 10 9 6 3 2 1 2 4 6 7
2 1 1 3 6 5 8 9 14 10 4 11 9 1 6 6 7 8 14 18 16 15 16 16 15 13 12 10 9 10 10 10 9 9 9 9 9 9 10 10 11 11 11 10 7 5 6 9 11 13 13 14 15 15 17 16 15 17 17 17 16 15 15 13 11 10 9 9 8 7 7 8 9 9 9 9 8 7 6 6 7 8 9 12 13 12 12 9 6 3 1 1 2 4 4 4 5
1 1 1 1 2 5 6 1 12 8 4 12 10 1 7 7 5 12 16 18 18 18 18 17 16 14 13 12 11 11 11 11 10 10 10 9 9 9 9 10 10 10 9 7 5 3 5 7 9 12 12 11 14 14 16 16 15 15 14 15 15 14 12 9 9 9 9 10 9 7 6 7 8 8 7 6 6 5 4 3 4 8 10 11 11 10 9 6 4 2 1 2 4 4 3 4 4
1 1 3 2 2 5 7 2 12 7 3 10 8 1 7 7 7 15 16 18 19 19 19 18 17 16 14 13 12 12 12 12 11 11 10 9 8 9 10 9 8 7 5 3 4 4 6 7 7 11 11 9 13 13 14 16 17 16 12 12 15 13 10 8 8 7 6 7 7 6 6 6 7 6 5 5 5 4 3 2 3 5 7 8 8 8 6 4 3 3 3 3 3 3 3 5 6
2 2 3 3 2 3 5 1 8 7 4 6 5 2 4 5 9 16 16 20 20 18 20 20 19 18 17 15 14 14 13 13 13 11 10 10 9 9 9 8 6 4 4 4 6 7 8 9 9 10 11 11 13 13 14 16 15 16 13 11 14 12 9 9 9 7 6 5 6 8 9 9 7 6 5 5 5 4 3 3 3 5 7 9 9 7 5 4 3 3 3 3 2 3 4 5 5
4 1 3 4 3 2 1 4 5 7 6 5 5 4 6 5 8 17 19 22 22 20 22 23 22 21 19 17 16 16 15 14 13 11 10 9 9 9 8 7 6 5 5 7 8 9 10 10 11 11 11 13 14 15 18 15 12 15 16 14 14 13 12 10 9 9 8 7 7 8 7 7 6 5 4 3 3 4 5 4 4 6 7 8 7 5 4 4 3 2 2 3 5 4 3 5 7
3 3 2 4 3 2 3 3 3 7 4 4 5 5 10 9 6 16 21 23 24 23 24 24 24 23 20 19 18 17 16 15 13 10 9 8 8 8 8 7 7 7 7 9 9 10 12 12 14 14 13 14 14 16 19 16 12 15 17 15 14 14 13 10 8 7 7 7 7 6 5 5 6 6 6 5 4 5 7 7 6 6 6 6 5 4 3 2 2 2 3 3 4 5 8 10 10
6 5 4 4 3 4 4 4 5 8 4 5 8 7 9 10 8 13 20 23 25 24 21 21 23 23 22 21 19 18 18 16 13 10 8 8 8 7 8 9 9 9 10 11 10 12 14 14 16 17 16 15 13 14 17 16 13 14 15 14 14 13 11 10 8 7 7 7 7 6 6 6 7 7 7 6 6 6 7 8 8 7 6 5 4 3 2 1 1 1 2 5 7 8 10 12 11
5 3 3 4 4 5 4 4 4 5 4 6 9 8 8 9 7 12 20 21 21 22 18 20 24 25 25 23 21 20 19 17 13 10 9 9 9 8 10 13 12 12 13 12 11 14 16 17 17 17 16 17 15 13 13 14 13 14 14 13 12 12 11 10 10 9 9 8 8 8 9 9 9 8 8 8 8 7 8 8 7 7 6 4 4 3 3 4 5 6 7 8 8 8 10 13 11
6 5 5 4 4 5 5 3 3 2 2 5 6 6 8 9 7 10 16 14 17 25 24 23 27 27 26 25 23 22 20 18 14 12 12 11 11 10 12 16 15 14 14 13 13 14 16 17 16 14 14 16 16 14 12 11 12 12 12 12 11 13 13 11 11 11 10 10 11 11 11 11 10 9 8 7 7 7 7 7 7 7 7 6 7 8 9 9 9 9 7 6 7 8 11 13 11
7 5 4 4 4 4 4 3 2 0 2 4 5 5 7 9 8 8 14 18 21 31 31 28 30 29 28 26 25 25 22 19 16 15 15 14 13 13 14 17 16 15 16 15 14 16 16 14 12 11 13 13 14 14 13 12 13 12 11 12 12 13 13 12 12 13 12 11 12 11 10 10 9 9 9 8 8 9 9 10 10 11 12 11 10 11 11 10 9 9 8 8 8 8 9 11 11
4 5 4 4 4 2 3 4 3 2 1 3 4 5 6 7 8 9 16 20 19 22 25 25 26 29 29 28 27 26 24 22 19 18 18 16 17 16 16 18 16 17 19 17 16 18 16 13 12 14 16 15 15 15 14 14 15 14 13 13 12 12 14 14 13 14 13 12 12 12 12 11 11 12 13 13 13 14 14 14 14 13 14 13 11 10 9 9 9 9 10 10 10 10 11 12 12
3 5 5 4 3 5 6 3 1 3 4 2 2 5 6 6 9 10 8 9 9 12 18 20 23 27 27 26 26 26 24 23 21 20 20 19 19 19 19 19 18 18 21 20 18 17 16 16 16 16 17 16 16 15 14 14 15 15 15 15 15 16 17 16 14 15 15 15 16 16 17 16 16 17 17 16 15 15 14 14 13 12 12 11 9 8 8 9 9 10 11 12 12 13 14 14 13
5 5 7 7 6 7 6 0 3 3 5 3 1 2 6 3 7 9 2 2 6 8 13 18 21 24 25 26 27 25 23 21 20 20 21 21 21 21 20 20 21 20 22 22 18 16 19 20 17 16 16 15 15 15 14 14 15 15 16 16 18 19 20 18 16 18 19 19 20 20 20 19 17 17 16 15 14 13 12 12 11 10 9 9 8 8 9 9 10 11 12 12 13 14 13 13 13
4 5 7 9 8 8 6 3 1 2 4 3 3 2 7 5 4 8 4 5 8 8 10 14 19 23 26 27 27 26 23 21 20 20 22 22 23 24 23 22 22 22 24 23 18 18 21 20 17 18 18 16 17 17 16 16 16 17 16 16 17 19 21 22 21 22 21 21 21 21 20 18 16 15 14 13 12 11 10 10 9 9 8 9 9 9 9 10 11 12 12 13 13 13 13 13 14
4 5 4 7 8 8 7 4 3 3 3 4 2 3 5 8 6 8 8 7 8 9 10 12 18 23 25 26 26 25 25 23 23 22 23 24 24 26 26 24 23 23 25 23 18 19 20 17 17 19 18 18 19 18 16 17 16 17 18 18 20 21 24 26 25 24 22 21 21 20 19 17 16 14 13 12 11 10 9 9 9 9 9 10 10 10 12 13 13 14 13 14 14 14 14 15 14
5 5 5 6 5 5 4 5 2 1 2 3 1 4 3 9 6 3 5 6 9 14 14 13 18 23 25 27 26 25 25 24 24 23 24 26 26 26 26 27 26 24 24 21 20 21 19 18 19 19 19 20 20 18 18 18 16 17 20 22 25 26 25 26 25 23 22 20 19 19 17 16 15 13 12 10 10 9 9 9 10 10 11 12 13 13 14 14 14 14 14 14 15 15 15 15 14
4 3 6 6 4 5 5 4 4 3 2 5 5 5 3 8 4 3 2 5 11 13 10 11 18 25 26 28 27 26 26 25 24 23 24 26 26 26 27 29 28 26 24 23 22 22 21 21 21 20 20 21 19 18 18 18 18 20 23 24 25 25 25 25 24 23 21 19 18 17 16 14 13 11 11 10 9 9 10 10 10 11 11 12 12 12 12 12 12 12 13 13 13 13 13 12 12
7 6 6 7 6 5 4 3 5 2 5 6 9 10 6 5 4 4 4 5 8 7 2 6 16 24 28 29 29 29 28 27 26 24 24 26 27 27 28 29 30 28 27 26 24 23 23 23 22 22 21 21 19 19 20 21 22 22 23 22 21 22 23 23 22 22 21 18 16 16 15 13 12 11 10 9 9 9 9 9 9 9 10 10 10 10 11 11 12 12 12 12 12 12 12 12 12
8 5 4 4 4 5 5 4 4 1 7 5 10 11 10 8 6 3 4 5 4 5 5 7 13 22 29 30 31 31 31 29 28 27 26 28 30 30 30 30 31 30 29 28 25 25 25 24 23 23 23 22 21 22 23 24 24 24 23 21 19 20 20 20 20 19 19 17 15 15 14 13 12 11 10 8 8 8 7 7 8 9 10 11 12 12 13 13 13 13 13 13 13 13 13 13 13
5 5 6 3 1 2 3 2 1 4 7 4 7 8 7 9 7 6 10 9 6 6 8 12 18 24 29 30 31 31 32 31 30 29 29 30 33 33 33 33 32 31 30 29 27 27 27 25 25 24 25 25 24 25 25 26 26 25 23 21 20 19 19 18 17 17 18 16 14 13 13 11 10 9 8 7 7 7 8 9 11 12 13 13 14 14 14 14 14 14 14 14 14 14 14 14 14
5 6 7 5 3 1 2 3 2 5 5 4 4 5 3 6 4 8 13 10 6 6 7 15 22 27 30 31 31 30 31 31 32 31 31 31 33 34 35 34 33 32 31 30 29 29 28 27 26 26 27 27 26 26 27 27 26 25 22 21 19 19 19 18 17 16 16 15 13 12 12 10 9 9 8 7 7 9 10 11 12 13 13 14 14 14 15 15 15 15 15 15 15 15 15 15 15
6 5 6 6 5 4 4 4 4 4 4 4 2 3 4 3 2 6 7 4 2 3 5 14 19 24 29 29 30 30 31 31 32 32 32 32 33 34 35 35 34 33 32 31 30 29 29 28 28 29 29 29 28 28 28 27 27 25 23 21 20 19 18 18 17 15 15 14 13 12 11 11 9 8 8 7 8 9 10 10 11 11 12 12 13 13 13 13 14 14 14 14 14 14 14 14 14
3 2 4 3 6 5 3 3 4 3 2 3 3 4 4 4 4 4 2 3 3 4 7 15 17 22 27 29 30 32 32 32 32 33 33 32 32 34 35 35 35 35 33 32 31 31 30 31 31 30 29 29 29 29 28 27 27 25 23 22 20 19 18 18 17 16 15 14 13 12 11 11 9 8 7 7 8 8 8 9 9 9 9 10 10 10 11 12 12 12 12 12 12 12 12 12 12
2 3 4 4 5 5 3 3 1 2 3 4 4 5 4 3 6 2 3 1 1 3 7 14 18 24 28 30 32 33 33 33 34 34 34 33 33 35 36 37 37 37 35 34 33 33 33 33 32 31 30 30 30 29 28 27 26 25 24 22 20 19 18 17 16 16 16 15 14 13 11 10 9 7 6 6 6 6 6 6 7 7 7 7 8 8 9 10 10 11 11 11 10 10 10 10 10
5 4 6 2 2 1 2 2 2 1 4 5 4 6 5 3 5 1 4 3 5 4 6 10 15 22 26 28 32 33 34 34 34 33 32 32 34 36 38 38 38 37 36 35 34 34 34 34 33 32 31 31 30 29 28 27 26 25 24 23 21 20 19 17 17 17 16 16 15 14 12 10 8 6 5 5 5 5 4 4 4 4 4 5 6 7 8 9 9 10 10 10 10 9 9 9 9
5 4 5 4 1 1 3 2 3 2 4 5 3 5 6 8 6 2 4 9 10 7 7 8 13 21 25 27 30 32 33 34 35 34 33 33 35 38 39 39 38 37 36 36 36 36 36 34 33 32 31 31 30 29 29 27 26 25 23 23 22 20 20 19 18 18 17 16 15 14 12 9 8 7 6 5 4 3 2 2 2 2 3 4 6 7 8 9 9 10 10 10 10 9 10 9 9
3 2 3 2 2 4 4 3 3 3 4 5 3 3 5 7 7 8 11 14 13 11 10 10 15 23 27 28 31 33 34 36 37 36 35 35 37 39 40 40 39 38 37 37 37 37 37 36 34 33 32 31 30 29 29 28 27 25 24 24 23 22 21 20 20 18 17 17 15 13 11 10 8 7 6 5 4 3 2 1 0 2 3 5 6 7 8 9 9 10 10 10 10 9 10 10 10
3 3 5 3 1 2 1 2 3 4 3 3 3 6 7 4 4 9 13 14 13 15 14 13 18 25 28 30 33 35 36 37 37 37 36 36 38 39 39 39 38 38 38 38 39 38 38 37 36 35 33 32 31 30 30 29 28 27 25 25 24 23 22 22 21 19 18 17 15 13 12 11 9 8 7 6 5 4 3 2 1 2 3 4 5 6 7 9 9 10 10 10 10 10 10 10 11
6 6 8 8 6 4 2 4 3 3 3 4 3 8 10 4 1 3 8 8 10 17 17 14 19 27 30 32 34 36 37 37 37 37 36 37 39 40 40 39 39 39 40 40 40 40 39 38 37 36 35 33 33 32 31 30 28 27 26 25 24 24 23 23 22 21 19 18 16 15 13 11 10 9 7 6 6 5 3 2 2 3 4 4 6 6 7 8 9 10 10 11 11 11 11 11 11
Wind_Direction
90 156 194 208 155 91 59 54 57 341 69 94 106 96 49 77 96 73 59 62 69 15 56 71 44 45 76 97 95 81 63 57 88 97 128 153 131 133 136 160 159 148 160 148 170 173 167 162 153 154 147 144 141 128 125 117 115 107 101 98 92 96 112 125 129 129 124 120 115 105 94 89 88 83 78 74 64 63 60 57 63 69 69 58 43 33 23 14 8 7 8 9 10 11 15 20 31
94 145 183 157 105 50 40 58 79 8 55 66 22 101 98 63 70 78 85 83 116 128 77 68 52 52 90 101 90 77 57 62 84 101 120 117 113 138 127 140 164 150 154 132 162 173 170 166 156 156 154 151 147 136 128 114 109 99 101 103 101 104 112 123 127 124 116 111 110 102 93 89 90 86 83 80 70 68 63 55 58 66 65 48 27 21 16 11 10 10 12 15 18 21 23 24 27
98 126 133 138 65 21 16 51 87 78 76 88 6 329 84 80 91 115 103 96 106 99 82 66 55 57 84 86 72 78 73 74 84 98 109 111 124 132 120 136 161 157 153 124 149 173 172 169 164 157 156 156 151 143 133 125 107 89 99 107 106 107 115 124 124 121 115 112 109 102 94 90 91 89 84 82 80 78 72 57 57 55 47 32 16 15 13 14 16 17 21 24 28 32 34 31 30
100 114 108 68 26 27 43 63 116 110 110 131 75 347 92 108 121 120 99 89 83 73 71 72 61 70 82 79 72 83 75 66 74 97 103 108 124 121 120 137 159 157 151 128 130 167 176 174 171 165 160 159 159 149 137 132 109 90 100 107 109 108 116 125 126 125 122 120 112 102 96 93 92 90 87 87 87 84 79 60 47 32 23 20 15 14 14 18 20 20 23 26 32 36 38 37 34
98 123 102 28 28 23 71 73 95 94 137 171 118 136 124 122 129 119 106 94 88 75 65 76 86 86 80 66 69 69 45 71 71 93 102 106 118 119 126 138 155 158 148 128 103 150 178 180 175 172 168 163 164 158 147 140 120 97 99 102 105 108 119 128 130 129 128 125 114 105 100 97 95 92 93 90 82 77 74 48 30 18 17 18 16 15 17 19 19 20 23 26 30 34 38 39 38
122 150 58 4 14 340 65 66 58 71 182 162 123 160 139 129 132 123 113 100 93 83 73 81 106 101 83 67 69 59 44 82 86 95 105 111 122 122 130 134 142 157 156 128 102 134 169 181 180 176 174 171 169 167 157 152 140 112 101 98 101 108 119 130 134 133 132 126 114 108 102 98 96 97 100 93 81 71 69 50 31 22 20 17 15 15 16 17 17 18 21 25 27 32 38 40 44
100 87 13 356 359 34 88 110 109 83 354 114 132 152 140 135 136 129 118 106 89 77 80 83 102 98 90 98 74 57 63 82 102 107 112 119 127 127 127 125 136 157 176 143 129 142 152 170 181 181 180 178 176 172 166 160 149 129 116 106 104 105 111 129 140 142 139 127 117 113 109 103 100 107 106 98 90 69 55 48 35 27 21 17 16 15 15 14 14 16 18 23 24 27 34 42 52
63 37 19 26 28 39 87 108 120 133 44 67 126 133 131 128 130 136 130 124 105 76 82 73 96 94 70 140 97 63 78 79 90 101 112 122 130 137 130 127 141 160 169 161 172 185 155 158 177 183 183 182 181 177 177 170 157 143 135 129 120 114 108 125 144 150 147 134 127 122 118 110 107 116 113 103 95 65 47 40 32 28 25 22 20 16 14 11 12 15 16 21 24 24 29 40 53
39 22 15 57 41 44 79 87 77 118 105 83 93 106 117 101 97 125 119 105 110 89 69 41 88 125 105 104 104 96 82 74 85 98 111 125 133 143 143 141 152 161 164 173 185 196 188 170 176 182 182 183 182 181 185 179 163 152 145 146 134 132 121 127 145 155 153 142 136 134 125 115 115 122 121 116 98 68 49 45 36 26 24 23 20 16 13 11 10 13 16 20 24 25 26 36 50
25 32 334 71 57 56 74 78 85 106 127 119 98 96 103 82 77 105 111 101 114 94 58 56 94 132 124 99 107 109 88 86 94 102 116 129 138 146 156 158 162 164 168 179 190 199 200 190 180 181 182 183 182 183 190 186 175 162 152 151 141 140 133 137 146 157 161 146 142 145 137 131 127 126 133 130 110 89 52 52 46 25 21 21 19 17 13 11 9 11 16 20 26 27 25 29 38
23 328 319 69 44 53 141 144 117 125 128 106 82 89 95 91 82 99 107 101 114 96 70 79 97 126 118 98 123 114 100 117 116 112 117 128 142 152 161 168 178 179 178 182 191 198 196 192 187 184 183 182 184 187 193 191 186 178 165 161 153 145 143 150 152 161 171 159 153 155 155 154 146 137 145 144 127 126 33 40 39 28 24 21 19 17 14 13 11 11 16 20 27 31 26 22 25
15 335 50 81 50 150 166 142 139 133 97 83 74 115 114 93 67 77 103 100 113 95 71 62 90 131 115 106 144 133 116 135 129 119 117 124 144 158 163 167 178 198 198 193 194 194 187 188 187 186 185 184 187 189 194 194 190 186 181 178 167 160 161 165 164 165 176 175 172 168 170 174 164 155 160 162 157 239 20 21 25 29 28 23 17 13 13 13 11 10 14 20 25 31 29 21 18
32 24 73 100 201 141 129 124 149 120 66 239 176 150 138 98 61 64 98 95 106 102 74 61 80 117 113 128 151 162 164 145 127 116 122 125 148 167 168 169 173 193 209 208 205 198 189 189 186 185 188 189 191 192 194 197 194 193 194 193 182 177 178 178 175 174 182 187 189 182 178 183 180 177 176 178 194 234 317 13 25 29 27 21 13 9 11 13 13 12 13 18 21 25 28 21 13
42 43 89 126 311 111 118 115 155 114 73 262 174 150 129 101 70 76 97 90 85 100 89 80 86 98 120 131 155 188 188 131 125 117 132 137 166 173 176 179 177 185 200 214 218 215 207 196 184 180 188 192 194 195 197 198 197 199 200 201 199 192 191 194 186 180 188 195 201 196 189 193 193 193 194 206 227 250 299 19 36 29 22 17 10 9 11 15 17 16 16 19 20 22 24 23 16
37 34 94 88 1 54 132 150 150 120 171 232 160 149 112 100 92 85 96 97 100 104 109 126 96 102 151 168 177 191 185 99 124 117 128 142 169 170 182 186 185 185 189 207 216 226 230 217 192 181 187 194 197 200 202 202 201 203 203 204 208 205 200 202 195 185 187 196 205 205 201 203 199 199 215 237 247 268 303 7 32 19 8 7 5 8 11 15 20 20 19 19 20 22 21 22 19
30 31 78 66 353 99 196 157 119 107 200 205 162 152 113 101 110 96 93 106 122 128 140 134 90 107 149 169 174 184 190 259 141 126 130 140 172 176 183 184 190 194 192 199 201 211 221 223 211 192 190 196 202 206 206 206 207 207 208 209 209 211 205 199 201 188 185 195 204 206 207 211 212 213 233 247 248 276 294 327 353 348 347 350 355 3 6 9 18 21 21 21 19 19 19 18 17
19 37 68 43 317 114 252 356 130 146 186 188 162 155 135 119 116 114 118 127 127 136 136 113 109 120 129 148 162 188 227 230 184 161 154 156 184 192 193 189 192 199 202 205 201 203 210 214 213 206 198 196 201 207 210 210 212 214 215 215 213 216 208 196 202 194 187 196 203 208 213 216 220 223 233 237 237 267 278 282 302 314 322 330 343 356 360 5 16 22 24 26 19 15 18 17 14
22 92 78 48 199 70 264 195 154 149 144 166 155 134 135 149 157 137 127 115 122 120 113 116 128 123 116 133 151 190 223 208 193 185 176 174 191 205 208 201 195 199 206 211 211 209 209 213 214 212 209 204 197 199 208 209 211 216 218 219 219 220 213 198 198 204 197 199 205 210 216 222 225 228 235 242 244 250 251 249 275 290 305 320 333 347 353 1 13 23 28 27 22 17 16 19 18
37 94 78 193 196 59 46 110 91 112 144 155 136 105 126 149 156 146 187 116 125 117 104 122 131 124 125 140 153 240 241 196 181 185 183 183 195 207 218 219 210 213 219 217 216 218 216 216 219 218 214 212 202 193 197 205 210 213 216 221 221 221 223 217 214 220 213 207 212 208 212 222 226 233 237 240 244 241 237 240 261 278 294 315 323 335 345 358 13 24 30 27 24 23 20 24 26
30 69 79 246 212 72 61 87 74 90 134 135 122 111 123 143 148 145 192 95 121 140 140 147 146 146 158 164 175 191 230 192 169 180 186 190 200 211 226 235 233 232 235 233 227 228 228 223 222 222 218 214 207 198 195 202 210 214 217 221 221 222 226 226 224 223 216 217 219 210 212 219 227 236 235 239 249 246 247 259 276 287 297 314 321 330 342 360 15 27 33 29 27 26 25 29 33
3 76 148 222 181 83 64 88 74 77 107 114 118 107 100 146 157 156 160 91 90 169 167 179 171 169 175 174 183 177 198 188 159 170 183 192 202 214 229 232 236 239 244 248 243 239 241 238 232 225 221 217 210 203 199 198 207 216 217 215 213 217 222 225 224 222 219 220 215 209 215 219 223 229 232 242 249 250 266 286 293 295 301 315 326 326 336 7 14 23 32 30 29 28 28 31 36
21 75 137 105 83 112 111 101 87 72 87 82 92 91 107 153 173 212 182 175 210 180 168 176 178 189 199 203 211 184 189 187 157 159 169 181 193 202 217 225 233 245 254 257 257 254 250 249 244 234 223 217 211 206 199 193 200 211 209 205 204 207 214 219 218 218 218 216 211 207 215 222 221 224 233 240 242 252 274 285 284 290 309 317 325 319 332 15 8 14 30 27 28 30 31 34 36
46 32 71 62 70 123 141 110 103 82 86 67 60 113 143 148 265 265 214 203 196 176 169 173 184 206 218 226 222 194 189 187 170 167 173 180 193 206 222 238 245 252 260 262 264 266 260 252 246 239 225 210 205 200 194 190 193 201 199 199 204 202 205 209 208 211 210 211 213 207 213 225 221 221 228 235 239 241 262 274 265 292 321 306 305 309 327 355 351 7 25 23 26 29 29 30 31
84 353 17 52 70 110 147 151 143 201 171 141 110 224 223 212 258 253 198 190 188 181 182 189 196 206 212 214 204 189 186 188 185 185 196 203 213 230 240 249 254 256 260 263 264 263 261 256 249 245 228 204 192 186 187 188 189 195 198 199 203 203 206 208 204 208 210 210 214 209 215 224 217 220 225 231 234 224 249 261 238 261 266 226 257 286 306 329 336 360 17 16 22 25 27 28 25
77 42 349 20 46 117 189 211 200 235 224 203 241 255 252 249 250 251 202 188 188 191 195 197 198 198 193 187 180 178 183 188 193 199 216 226 231 241 247 254 257 260 263 264 266 262 260 258 253 248 224 192 180 181 186 186 188 195 199 201 201 204 210 212 209 210 210 209 214 216 222 224 218 229 234 231 229 222 237 241 228 224 189 203 231 256 268 292 316 339 358 9 17 17 25 29 19
80 94 350 340 307 270 229 221 219 238 231 217 241 256 261 265 263 263 217 198 193 193 194 193 195 187 177 176 174 173 184 194 205 219 233 241 247 251 253 259 261 264 267 268 270 267 262 254 247 239 209 186 179 182 186 185 190 196 199 202 204 206 209 214 217 214 210 214 218 218 224 225 225 236 240 239 236 239 240 239 227 200 188 214 230 246 256 263 291 315 331 355 15 5 6 13 5
107 5 329 301 278 277 246 224 225 231 235 223 213 239 264 263 236 235 203 193 193 190 186 189 191 183 177 179 179 179 193 208 224 235 245 252 257 263 266 270 273 276 275 273 276 272 260 245 235 217 195 184 180 183 185 187 192 195 197 201 205 206 205 206 209 207 207 215 217 220 234 236 237 239 243 247 247 254 239 225 212 197 208 231 224 230 237 236 255 277 286 311 21 344 340 343 348
15 337 319 290 283 283 252 227 223 214 227 222 204 233 278 235 219 232 198 188 194 194 186 188 190 187 183 185 189 195 206 218 233 241 251 259 263 270 274 278 281 285 285 283 283 271 249 228 214 196 186 182 183 184 184 190 196 196 199 202 203 205 207 208 207 205 207 213 218 230 247 243 242 247 250 253 249 251 233 217 215 222 234 230 218 223 223 219 229 238 235 204 179 259 318 337 347
289 316 311 296 321 303 248 228 214 198 196 201 183 314 301 225 225 229 193 185 189 192 187 186 191 192 191 193 200 206 215 223 230 237 246 252 258 264 270 276 278 280 283 286 283 258 224 206 198 185 181 183 184 187 187 194 201 200 203 203 201 203 206 210 211 209 208 211 223 234 245 244 246 251 251 253 247 242 235 236 251 255 244 233 230 232 227 222 219 216 196 182 223 297 318 345 352
277 260 162 313 354 322 259 229 201 187 168 175 158 334 279 255 230 189 180 182 181 183 184 186 193 196 198 202 209 214 221 225 228 232 239 246 253 262 268 273 273 272 273 274 268 243 201 193 192 178 178 187 185 190 193 195 202 199 201 202 202 207 208 210 211 211 211 211 221 228 235 241 242 242 238 240 241 236 235 246 262 255 240 232 226 222 218 208 191 168 129 226 288 301 319 351 352
248 348 53 4 357 289 303 186 170 164 176 170 142 199 255 280 229 177 178 184 183 183 183 188 195 199 204 207 212 218 223 227 232 234 238 247 255 264 270 271 270 268 264 258 239 207 173 172 177 168 172 191 188 190 195 195 202 200 196 200 205 212 211 209 206 205 211 214 216 218 222 226 226 228 225 233 247 244 237 230 232 229 223 218 208 195 185 171 157 167 210 260 287 300 327 344 338
77 57 320 327 162 263 314 127 162 158 187 172 142 184 259 278 209 181 182 185 188 190 186 192 199 201 205 209 211 216 222 227 229 232 235 245 255 262 267 268 267 258 248 228 175 148 140 136 147 164 164 175 181 186 195 194 200 205 203 205 209 212 208 197 188 187 200 206 210 219 226 221 213 219 227 244 260 255 240 211 192 197 197 192 182 172 165 169 198 229 252 266 276 302 323 322 326
356 139 242 265 182 265 318 263 189 164 138 183 186 201 261 273 197 185 188 188 192 194 193 197 202 205 205 208 214 215 219 224 225 228 231 236 244 253 260 259 248 226 196 159 139 126 126 126 127 149 160 170 175 176 183 183 191 202 196 186 190 191 188 184 181 191 211 216 224 230 231 227 216 215 225 242 254 246 226 213 178 158 159 163 164 168 181 198 219 240 257 265 298 325 320 330 351
314 197 229 247 208 219 277 295 243 166 139 197 225 229 244 265 196 190 196 195 195 198 202 203 204 207 206 207 213 214 218 224 224 224 224 226 233 241 242 231 206 192 176 144 129 122 127 137 134 133 150 167 173 175 178 183 196 200 189 173 171 175 179 180 183 199 215 220 217 208 202 201 192 184 187 200 217 212 205 198 175 155 154 165 174 185 194 198 210 230 275 315 337 350 31 60 64
213 188 211 258 255 227 211 262 230 164 157 204 207 240 249 264 229 203 205 201 201 206 208 206 204 205 205 206 207 211 217 221 223 221 220 217 223 231 219 195 177 168 154 136 134 138 137 147 153 147 147 154 163 175 175 176 183 182 178 174 173 174 175 177 180 188 192 193 182 165 157 156 153 150 149 151 165 187 194 189 178 168 166 174 181 185 187 203 246 295 325 348 19 59 80 81 83
186 180 168 192 228 269 232 237 217 170 174 225 211 227 244 251 242 218 211 205 207 215 215 209 204 202 203 203 204 208 212 215 219 218 216 210 212 221 195 169 161 157 150 142 146 154 150 153 158 156 156 156 161 170 164 164 175 173 165 164 165 162 163 170 177 171 161 155 143 137 142 140 142 153 157 162 170 170 173 174 169 159 157 164 172 184 195 213 270 359 50 79 76 77 80 78 80
210 214 209 198 202 266 260 248 249 170 167 240 225 228 247 248 243 226 215 207 210 218 219 211 203 201 202 199 200 204 206 211 216 213 207 200 202 206 177 159 159 159 155 156 159 159 159 159 159 159 163 166 169 173 160 156 168 170 163 160 160 154 154 163 162 154 148 139 134 137 140 137 141 152 156 159 160 156 154 155 151 144 146 161 169 156 129 116 101 88 89 92 87 78 75 71 72
238 235 241 247 218 250 261 246 259 174 184 261 258 253 260 257 255 235 211 201 213 216 213 211 205 203 202 198 197 199 202 207 210 208 199 194 197 192 170 161 165 165 159 162 166 162 160 157 153 155 162 162 165 174 171 162 161 162 159 158 160 154 148 152 153 149 147 142 141 142 139 138 140 143 142 143 144 142 141 138 133 127 122 120 118 109 101 99 94 87 78 74 69 61 65 68 71
228 225 220 249 245 258 295 313 307 34 188 256 286 275 265 266 267 243 209 205 219 218 213 213 208 201 199 196 195 197 200 203 204 202 193 191 191 179 167 165 168 172 166 161 163 163 162 157 153 160 168 164 162 165 165 167 165 163 161 157 161 161 153 157 158 149 147 147 145 143 142 140 142 140 132 131 129 122 118 117 113 109 103 98 97 96 93 86 77 68 55 45 40 37 48 55 58
205 195 177 233 249 232 273 301 294 284 219 242 290 285 269 270 273 258 224 216 225 224 219 220 214 206 202 201 202 203 202 202 200 197 190 188 186 174 169 169 167 174 173 163 162 167 168 167 166 167 168 166 163 162 163 168 166 162 165 164 168 171 161 160 159 149 147 149 142 136 133 129 129 125 118 116 115 110 107 104 101 99 96 90 86 85 79 68 57 48 40 33 27 25 28 31 33
236 192 183 210 222 209 232 270 312 330 332 305 324 312 280 247 247 257 242 216 224 219 212 215 215 211 207 204 206 209 209 209 204 197 190 188 183 175 172 172 170 172 173 166 163 172 175 167 164 161 159 158 159 163 167 173 174 172 174 172 172 169 158 157 157 146 140 139 133 126 121 119 119 117 113 111 107 104 101 97 94 92 89 85 76 67 58 52 44 37 33 27 22 23 23 21 19
262 227 202 205 210 219 233 199 67 3 322 285 105 305 282 264 243 254 267 179 218 208 199 200 199 200 201 200 202 204 208 212 211 202 193 188 183 177 174 174 173 173 175 168 163 177 175 163 166 169 166 169 171 173 177 182 184 182 181 174 171 167 155 149 147 139 135 133 129 124 121 118 117 114 111 108 103 101 98 93 90 84 80 73 61 51 46 42 34 30 29 24 22 25 23 17 20
244 245 206 203 213 220 221 185 122 248 265 274 109 169 273 292 260 252 234 205 223 218 209 199 188 189 194 197 198 200 202 204 205 201 194 189 185 182 179 177 177 180 180 173 171 181 173 163 175 178 174 178 178 178 180 179 178 177 179 175 170 165 152 142 139 136 135 133 129 126 124 121 119 115 113 110 105 101 96 91 85 74 66 59 51 41 36 34 29 28 26 23 23 25 20 17 26
230 250 184 184 205 213 207 168 168 226 255 314 43 123 279 280 250 238 220 217 243 239 225 209 193 189 190 193 197 199 203 203 199 195 193 191 188 187 185 181 181 184 181 174 178 184 175 170 181 180 178 182 180 178 172 168 171 171 171 167 159 155 147 139 139 139 136 134 131 129 128 125 123 119 115 111 105 98 89 81 71 60 53 48 40 32 30 30 27 26 25 22 21 19 17 19 23
244 237 129 139 170 169 142 118 126 328 355 304 255 121 279 276 255 229 210 217 248 244 227 212 200 194 190 190 195 198 202 204 201 198 195 191 189 189 188 184 183 185 182 178 181 184 182 183 186 186 185 183 180 176 170 167 171 166 161 157 151 149 145 140 141 141 137 137 135 132 131 128 125 121 114 107 98 88 76 65 56 46 39 35 30 26 27 26 23 21 18 17 16 14 15 16 15
207 153 84 69 67 77 78 96 97 35 324 241 201 154 228 272 246 146 140 215 238 247 234 205 200 199 196 194 194 196 198 199 200 202 198 191 189 189 188 186 184 185 185 184 182 183 187 188 188 188 186 183 180 175 169 165 163 160 157 155 151 148 146 143 144 142 140 142 140 135 135 130 125 120 110 101 88 76 62 52 42 33 30 27 24 23 22 21 18 17 17 17 17 17 19 20 19
136 94 58 46 25 32 44 50 83 57 277 227 186 179 185 270 266 177 188 221 227 244 233 184 195 199 201 200 199 197 196 196 196 198 197 190 188 188 188 187 186 186 186 185 184 184 187 188 188 187 184 183 180 171 165 161 159 160 159 157 155 151 149 149 148 145 144 147 145 139 137 131 124 116 104 93 80 67 56 46 38 33 32 32 29 28 26 25 24 24 25 25 25 26 27 27 27
114 87 80 67 355 11 22 1 64 188 259 220 187 185 181 225 261 225 238 262 240 221 201 187 189 195 198 200 202 200 198 198 195 195 195 190 188 188 188 188 187 187 186 184 185 187 189 190 189 185 181 179 174 167 163 161 161 163 162 161 159 154 152 152 151 148 148 150 148 141 137 131 122 112 100 90 79 70 60 51 45 42 40 37 35 32 30 28 28 27 26 25 25 25 26 26 24
98 101 110 114 299 2 1 309 130 223 255 241 192 182 193 233 256 264 263 265 248 234 216 196 188 191 194 195 198 198 198 199 196 196 197 193 190 188 186 188 188 187 186 185 188 189 190 190 187 182 177 173 171 168 165 164 164 165 165 164 161 156 154 154 153 151 149 149 147 140 135 130 123 116 108 99 89 77 63 53 46 42 37 33 30 27 25 23 22 20 17 16 16 15 15 14 11
149 138 141 158 175 189 254 243 244 252 263 271 198 170 227 271 275 251 256 258 249 267 242 207 196 192 191 191 192 194 196 199 199 199 199 197 193 188 187 188 188 187 188 190 191 191 191 188 184 181 176 172 172 170 168 167 167 168 168 166 164 161 158 157 157 154 151 150 146 142 138 135 130 125 118 104 86 70 56 48 41 35 30 26 22 18 14 12 9 7 4 3 2 1 1 359 358
181 156 145 163 163 174 211 206 220 249 273 283 234 169 198 221 252 239 256 289 311 304 224 196 193 190 186 185 187 190 193 197 199 200 201 200 195 190 188 189 188 189 191 193 193 193 191 187 183 181 177 174 173 173 171 171 170 170 170 169 168 166 163 162 160 157 155 153 151 150 146 141 137 128 115 94 77 65 52 45 38 30 25 19 13 8 3 360 357 354 352 351 349 349 349 348 347
221 125 119 186 183 180 215 208 187 187 288 276 209 220 217 209 257 242 247 336 32 72 154 164 169 176 177 179 184 189 193 195 199 201 202 201 196 191 190 189 189 191 193 195 195 193 190 187 183 182 180 176 174 175 174 174 174 173 173 173 172 170 169 168 164 160 159 158 156 157 153 147 140 125 108 90 76 67 54 46 38 29 23 15 7 0 354 351 348 345 343 343 342 340 340 340 340
183 144 179 205 175 166 212 273 38 101 268 263 194 240 290 292 268 226 118 15 34 96 142 153 161 168 173 180 186 190 194 196 200 202 202 200 196 192 192 191 191 193 195 195 194 192 190 187 184 183 183 179 177 177 177 178 178 177 176 176 176 175 174 173 172 168 166 164 162 162 159 151 141 127 110 97 83 72 60 50 42 31 22 11 0 354 349 345 343 341 341 339 338 337 336 335 335
132 183 199 162 68 100 143 263 334 55 256 269 199 225 255 236 252 288 101 194 230 217 172 156 164 172 178 184 188 192 196 198 202 204 204 201 196 194 193 193 194 195 196 195 193 192 191 190 187 185 185 183 180 180 180 181 183 182 181 180 179 179 178 177 177 175 172 171 169 167 164 156 147 138 126 113 97 84 72 58 47 30 15 3 355 351 347 346 345 344 343 341 338 336 335 335 334
137 185 186 133 109 212 139 187 234 211 249 278 259 235 226 210 216 199 189 210 215 210 189 175 180 184 187 188 189 193 196 199 202 204 205 202 197 196 194 195 196 197 198 196 194 193 192 192 191 188 189 188 185 184 184 185 187 187 185 184 183 183 182 181 181 180 178 176 175 172 169 167 164 157 148 136 125 112 99 84 58 22 6 360 355 353 350 349 349 346 344 342 338 334 332 332 331
61 73 165 134 141 180 166 179 186 178 232 266 296 279 237 222 204 181 197 211 202 191 190 197 196 192 191 190 190 193 196 199 202 203 204 201 198 198 196 196 197 197 198 197 195 195 194 193 193 192 192 191 189 188 188 189 189 190 190 187 187 186 185 186 185 184 183 181 180 179 178 180 178 172 165 158 155 158 162 158 91 357 355 352 349 349 348 348 347 344 342 338 334 330 329 328 327
144 142 181 185 132 119 174 216 160 142 198 238 273 276 261 241 198 187 200 207 195 187 193 200 198 193 193 194 194 195 197 200 202 203 202 199 198 199 198 198 198 198 198 198 197 197 196 195 195 195 195 194 194 192 192 193 192 193 194 192 191 190 189 190 189 188 188 186 186 186 187 187 184 179 173 172 180 186 187 199 289 324 329 336 343 347 348 348 345 341 338 334 330 329 327 326 324
175 183 189 186 174 153 192 244 205 151 197 195 204 270 267 242 208 223 215 215 199 193 195 196 193 193 195 199 199 198 198 200 202 203 202 200 199 199 198 198 199 199 199 199 199 200 199 198 198 198 198 198 198 196 194 196 196 195 196 196 195 194 194 194 194 193 192 192 192 192 192 191 187 184 182 185 195 198 204 232 273 297 313 331 340 343 343 341 337 334 332 330 328 326 325 322 320